SPOT 7

Last updated on Wed Sep 17 2025 00:02:31 GMT+0000 (Coordinated Universal Time)

1 40053U 14034A 25259.60547743 .00000442 00000+0 10035-3 0 9994 2 40053 98.1029 323.6406 0001372 83.1846 276.9511 14.60562504597195
UTC large
Height (km)
Speed (km/s)
/
Latitude / Longitude
Inclination (degrees)
Orbital Period (minutes)
Azimuth
Elevation
Range (km)
Doppler Factor

Next 0 passes for location: London (51.5072 / 0.1276)

Sorry there are no passes over London.